Tracking 17938 objects as of 21-February-2017
HD Live streaming from Space Station
objects crossing your sky now

TDRS 3

Track TDRS 3 now!
TDRS 3 is classified as:


NORAD ID: 19548
Int'l Code: 1988-091B
Perigee: 35,703.8 km
Apogee: 36,036.4 km
Inclination: 14.9 °
Period: 1,440.0 minutes
Semi major axis: 42241 km
RCS: 38.9601 m2 (large)
Launch date: September 29, 1988
Source: United States (US)
Launch site: AIR FORCE EASTERN TEST RANGE (AFETR)

Backup; still partially operational.
Your satellite tracking list
Your tracking list is empty





NASA's NSSDC Master Catalog

Two Line Element Set (TLE):
1 19548U 88091B   17052.08476175 -.00000300  00000-0  00000+0 0  9999
2 19548  14.8771   9.3500 0039365 310.6518 159.2211  1.00265588 91246
Source of the keplerian elements: AFSPC